www.pogodaiklimat.ru

Погода и климат >> Архив погоды >> Бельгия >> Остенде


ПОГОДА в Остенде

  • Прогноз погоды в Остенде
  • Монитор погоды в Остенде

АРХИВ ПОГОДЫ в Остенде

Время (UTC), дата Ветер
(напр.,м/с)
 
Видим.   Явления Облачность Т
(С)
Тd
(С)
f
(%)
Тe
(С)
Тes
(С)
Комфортность P
(гПа)
Po
(гПа)
Тmin
(С)
Tmax
(С)
R
(мм)
R24
(мм)
S
(см)
13 13.06 Ю 7
{14}
30 км слаб. ливневой дождь 9/8 660 м
[Cu Sc Ac trans Ci sp]
+15.1 +10.8 75 +13 +14 1009.4 1008.8
14 13.06 ЮЗ 8
{13}
30 км в посл. час ливневой дождь 8/6 660 м
[Cu Sc Ac trans Ci sp]
+16.0 +10.5 70 +14 +15 1009.4 1008.8
15 13.06 ЮЗ 7
{14}
7000 м ливневой дождь 9/8 300 м
[Cb calv Ac trans Ci sp]
+12.2 +10.3 88 +9 +10 1010.0 1009.4
16 13.06 ЮЗ 7
{12}
30 км в посл. час ливневой дождь 9/4 660 м
[Cu Sc Ac trans Ci sp]
+14.3 +11.0 81 +12 +13 1009.8 1009.2
17 13.06 Ю 4
{9}
30 км 9/3 660 м
[Cu Sc Ac As Ci sp]
+14.4 +10.6 78 +13 +14 1009.7 1009.1
18 13.06 Ю 5
{14}
25 км {ливн. осадки} 9/3 660 м
[Cu Sc Ac As Ci fib]
+15.2 +11.6 79 +14 +14 1010.1 1009.5 +16.8 1
19 13.06 Ю 4
{8}
25 км 9/6 600 м
[Cu Sc Ac As Ci fib]
+13.9 +11.0 83 +12 +13 1010.6 1010.0
20 13.06 Ю 4
{8}
25 км 8/3 600 м
[Cu Sc Ac As Ci fib]
+13.3 +10.9 85 +12 +12 1011.0 1010.4
21 13.06 Ю 3
{8}
25 км 8/3 600 м
[Cu Sc Ac trans Ci fib]
+12.8 +10.7 87 +11 +11 1011.7 1011.1
22 13.06 Ю 3
{5}
25 км 6/6 600 м
[Cu Sc Ac trans Ci fib]
+12.0 +10.2 89 +10 +10 1012.1 1011.5
23 13.06 Ю 3
{4}
25 км 5/1 600 м
[Cu Sc Ac trans Ci fib]
+11.4 +9.9 90 +10 +10 1012.2 1011.6
00 14.06 Ю 4
{8}
25 км 5/1 600 м
[Cu Sc Ac trans Ci fib]
+10.4 +9.0 91 +8 +8 1012.1 1011.5
01 14.06 Ю 3
{5}
25 км 4/3 600 м
[Cu Sc Ac trans Ci fib]
+10.1 +8.6 90 +8 +8 1012.0 1011.4
02 14.06 Ю 4
{4}
25 км 4/0
[Ac trans Ci fib]
+9.2 +7.8 91 +6 +6 1011.8 1011.2
04 14.06 Ю 1
{4}
15 км 9/0
[Ac trans Ci fib]
+9.4 +7.7 89 +9 +9 1012.4 1011.8
05 14.06 Ю 3
{4}
12 км 9/0
[Ac trans Ci fib]
+10.5 +9.0 90 +8 +9 1012.4 1011.8
06 14.06 Ю 1
{5}
20 км 9/6 1500 м
[Sc Ci fib]
+11.7 +9.9 89 +11 +12 1012.6 1012.0 +8.8
07 14.06 Ю 3
{4}
25 км 9/8 1500 м
[Sc Ac trans Ci fib]
+13.1 +11.2 88 +12 +12 1013.1 1012.4
08 14.06 Ю 2
{5}
30 км 5/3 1500 м
[Sc Ac trans Ci fib]
+14.7 +11.9 83 +14 +20 1013.0 1012.4
09 14.06 ЮЗ 4
{6}
30 км 3/1 600 м
[Cu hum Ci fib]
+17.1 +12.1 72 +17 +24 1013.1 1012.5
10 14.06 ЮЗ 5
{9}
30 км 3/3 840 м
[Cu hum Ci fib]
+18.6 +12.0 65 +19 +24 1013.5 1012.9
11 14.06 Ю 6
{10}
30 км 3/3 1110 м
[Cu hum Ci fib]
+19.1 +10.8 59 +20 +24 1013.9 1013.3
12 14.06 ЮЗ 6
{11}
30 км 5/4 1320 м
[Cu hum Ci fib]
+20.0 +10.2 53 +21 +25 комфорт 1014.1 1013.5
13 14.06 СЗ 5
{10}
30 км 5/5 1440 м
[Cu hum Ci fib]
+16.8 +11.3 70 +16 +20 1014.6 1014.0
14 14.06 СЗ 4
{7}
30 км 4/4 1500 м
[Cu hum Ci fib]
+16.9 +11.8 72 +16 +22 1014.4 1013.8
15 14.06 СЗ 4
{10}
30 км 4/3 1500 м
[Sc diur, vesp Ci fib]
+17.5 +12.1 71 +17 +22 1013.8 1013.2
16 14.06 СЗ 4
{7}
30 км 5/3 1500 м
[Sc diur, vesp Ci fib]
+16.7 +10.1 65 +16 +19 1013.7 1013.1
17 14.06 СЗ 4
{6}
30 км 8/4 1500 м
[Sc diur, vesp Ci fib]
+15.9 +9.5 66 +15 +17 1013.6 1013.0
18 14.06 С 3
{10}
30 км 6/3 1500 м
[Sc Ci sp]
+15.8 +8.8 63 +15 +16 1013.8 1013.2 +20.6
19 14.06 С 3
{5}
30 км 5/3 1500 м
[Sc Ci sp]
+15.6 +8.8 64 +15 +15 1013.9 1013.3
20 14.06 СВ 3
{4}
30 км 8/3 1500 м
[Sc Ac trans Ci sp]
+15.2 +9.3 68 +15 +15 1014.1 1013.5
21 14.06 СВ 2
{5}
30 км 9/4 2000 м
[Sc Ac trans]
+14.7 +9.3 70 +14 +14 1013.9 1013.3
22 14.06 СВ 2
{3}
30 км 9/1 2000 м
[Sc Ac trans]
+15.2 +9.5 69 +15 +15 1013.5 1012.9
23 14.06 В 3
{5}
25 км 9/3 1500 м
[Sc Ac trans]
+14.8 +10.1 73 +14 +14 1013.2 1012.6
00 15.06 СВ 2
{5}
25 км 9/3 1500 м
[Sc Ac As Ci sp]
+14.4 +10.7 78 +14 +14 1012.5 1011.9
01 15.06 СВ 2
{3}
25 км 9/9 1500 м
[Sc]
+15.5 +10.9 74 +15 +15 1012.6 1012.0
02 15.06 ЮВ 2
{3}
20 км 9/9 1080 м
[Sc]
+14.0 +11.7 86 +13 +13 1012.5 1011.9
03 15.06 В 3
{4}
20 км 9/4 960 м
[Sc Ac As]
+13.5 +10.3 81 +12 +12 1012.6 1012.0
04 15.06 В 3
{5}
20 км 9/9 900 м
[Sc]
+13.4 +10.5 83 +12 +12 1012.6 1012.0
05 15.06 В 1
{4}
25 км в посл. час дождь 9/9 1000 м
[Sc]
+13.4 +11.6 89 +14 +14 1012.4 1011.8
06 15.06 СЗ 3
{5}
25 км {дождь} 9/6 450 м
[Sc Ac As]
+14.4 +11.6 83 +13 +15 1012.7 1012.1 +13.2 0.0
07 15.06 СЗ 3
{4}
25 км 9/5 450 м
[Sc Ac As Ci sp]
+15.2 +11.5 79 +15 +16 1013.3 1012.7
08 15.06 З 2
{4}
25 км 9/9 1350 м
[Sc]
+15.5 +11.4 77 +15 +16 1013.9 1013.3
09 15.06 З 3
{4}
25 км 8/5 600 м
[Cu Sc Ac As Ci sp]
+16.3 +11.5 73 +16 +19 1014.5 1013.9
10 15.06 СЗ 3
{5}
25 км 6/4 720 м
[Cu Sc Ac trans Ci fib]
+16.4 +10.7 69 +16 +22 1014.9 1014.3
11 15.06 СЗ 3
{6}
25 км 4/4 840 м
[Cu Sc Ac trans Ci fib]
+17.0 +11.6 70 +17 +25 1015.3 1014.7
12 15.06 СЗ 3
{6}
25 км 6/4 900 м
[Cu Sc Ac trans Ci sp]
+16.9 +12.1 73 +17 +26 1015.8 1015.2
13 15.06 СЗ 3
{5}
25 км 9/5 1050 м
[Cu Sc Ac trans Ci sp]
+16.3 +11.5 73 +16 +20 1016.2 1015.6
14 15.06 СЗ 2
{5}
25 км 5/4 1050 м
[Cu Sc Ac trans Ci sp]
+18.2 +9.9 58 +19 +27 1016.0 1015.5
15 15.06 СЗ 3
{5}
25 км 5/3 1050 м
[Cu Sc Ac trans Ci fib]
+17.1 +8.2 56 +17 +22 1016.2 1015.6
16 15.06 СЗ 3
{5}
25 км 4/4 1050 м
[Cu Sc Ac trans Ci fib]
+17.6 +10.4 63 +18 +21 1016.3 1015.7
17 15.06 СЗ 3
{5}
25 км 5/4 1200 м
[Cu Sc Ac trans Ci fib]
+17.2 +11.0 67 +17 +19 1016.2 1015.6
18 15.06 СЗ 2
{5}
25 км 6/3 1200 м
[Cu med, cong Ac trans Ci fib]
+17.1 +11.0 67 +17 +18 1016.1 1015.5 +18.6
19 15.06 З 1
{5}
30 км 6/1 1200 м
[Cu med, cong Ac trans Ci fib]
+16.2 +10.9 71 +17 +17 1016.2 1015.6
20 15.06 Ю 1
{2}
25 км 5/1 900 м
[Cu hum Ac trans Ci fib]
+15.9 +11.2 74 +17 +17 1016.4 1015.8
21 15.06 Ю 1
{5}
25 км 9/6 1500 м
[Sc Ac trans]
+14.0 +10.7 80 +14 +14 1016.7 1016.1
22 15.06 ЮВ 2
{3}
25 км 8/8 1380 м
[Sc]
+14.0 +11.5 85 +13 +13 1016.6 1016.0
23 15.06 Ю 3
{6}
25 км 9/9 1080 м
[Sc]
+15.0 +11.4 79 +14 +14 1016.8 1016.2
00 16.06 Ю 3
{6}
20 км 1/1 900 м
[Sc Ci fib]
+12.9 +10.6 86 +11 +11 1017.1 1016.5
01 16.06 Ю 2
{3}
20 км 5/1 1200 м
[Sc Ac trans Ci fib]
+12.9 +10.4 85 +12 +12 1017.4 1016.7
02 16.06 Ю 3
{5}
20 км 8/8 1500 м
[Sc]
+12.7 +10.5 86 +11 +11 1017.3 1016.7
03 16.06 Ю 2
{5}
20 км 8/6 1500 м
[Sc Ac trans Ci fib]
+12.8 +10.7 87 +12 +12 1017.4 1016.8
04 16.06 Ю 2
{5}
30 км 9/9 480 м
[Sc]
+13.0 +10.8 86 +12 +12 1017.9 1017.3
05 16.06 Ю 3
{4}
25 км 8/8 500 м
[Sc Ac trans Ci fib]
+13.4 +11.3 87 +12 +12 1018.0 1017.4
06 16.06 Ю 4
{6}
20 км 6/6 450 м
[Sc Ac trans Ci fib]
+13.7 +11.8 88 +12 +13 1018.6 1018.0 +12.2
07 16.06 ЮЗ 5
{8}
20 км 8/3 360 м
[St Ac trans Ci fib]
+15.5 +11.7 78 +14 +16 1019.2 1018.6
08 16.06 ЮЗ 5
{7}
20 км 6/6 500 м
[Cu Sc Ac trans Ci fib]
+16.0 +12.0 77 +15 +17 1019.6 1019.0
09 16.06 ЮЗ 6
{9}
20 км 5/5 700 м
[Cu Sc Ac trans Ci fib]
+16.6 +11.0 69 +16 +18 1019.7 1019.1
10 16.06 ЮЗ 6
{9}
20 км 6/5 900 м
[Cu Sc Ac trans Ci fib]
+18.6 +12.3 67 +19 +21 1020.1 1019.5
11 16.06 ЮЗ 7
{10}
20 км 5/5 900 м
[Cu Sc Ac trans Ci fib]
+18.8 +12.1 65 +19 +21 1020.1 1019.5
12 16.06 ЮЗ 7
{10}
20 км 5/5 1000 м
[Cu Sc Ac trans Ci fib]
+20.3 +11.8 58 +22 +24 комфорт 1020.0 1019.4
13 16.06 З 5
{11}
20 км 8/6 1050 м
[Cu Sc Ac trans Ci fib]
+18.3 +12.1 67 +18 +21 1020.4 1019.8
14 16.06 З 5
{9}
20 км 6/5 1050 м
[Cu Sc Ci fib]
+18.8 +13.1 69 +19 +23 1020.5 1020.0
15 16.06 З 6
{11}
20 км 6/5 1140 м
[Cu Sc Ac trans Ci fib]
+17.5 +12.9 74 +17 +19 1020.6 1020.0
16 16.06 З 9
{13}
20 км 5/5 1200 м
[Cu Sc Ci fib]
+18.3 +13.0 71 +18 +18 1020.6 1020.0
17 16.06 З 7
{12}
20 км 5/3 1200 м
[Cu Sc Ci fib]
+17.9 +12.8 72 +17 +18 1020.7 1020.1
18 16.06 З 6
{13}
25 км 4/1 1200 м
[Cu Sc Ci sp]
+17.5 +12.5 72 +17 +17 1021.0 1020.4 +20.9
19 16.06 З 4
{8}
25 км 3/1 1320 м
[Cu Sc Ci fib]
+16.8 +12.1 74 +16 +16 1021.0 1020.4
20 16.06 З 3
{6}
25 км 1/1 1200 м
[Sc diur, vesp Ac trans Ci fib]
+14.8 +11.7 82 +14 +14 1021.0 1020.4
21 16.06 ЮЗ 1
{8}
25 км 3/1 1500 м
[Sc diur, vesp Ci fib]
+13.8 +11.4 85 +14 +14 1021.1 1020.5
22 16.06 Ю 2
{2}
20 км 1/0
[Ac trans Ci fib]
+12.6 +10.7 88 +12 +12 1021.3 1020.7
23 16.06 ЮВ 1
{2}
20 км 1/0
[Ci fib]
+12.0 +9.9 87 +12 +12 1021.1 1020.4
00 17.06 ЮВ 2
{8}
20 км 1/0
[Ac trans Ci fib]
+11.1 +9.4 89 +10 +10 1021.1 1020.4
01 17.06 ЮВ 2
{2}
20 км 1/0
[Ac trans Ci fib]
+10.7 +9.4 92 +9 +9 1020.9 1020.3
02 17.06 ЮВ 1
{2}
20 км 1/0
[Ci fib]
+10.8 +9.3 90 +10 +10 1020.5 1019.9
03 17.06 ЮВ 2
{2}
15 км 1/0 2000 м
[Ac trans Ci fib]
+10.1 +8.9 92 +8 +8 1020.2 1019.6
04 17.06 ЮВ 1
{3}
15 км 1/0
[Ci fib]
+10.8 +9.5 92 +10 +10 1020.1 1019.5
05 17.06 ЮВ 1
{2}
20 км 1/0
[Ac trans Ci fib]
+12.5 +11.0 91 +12 +13 1020.3 1019.7
06 17.06 Ю 2
{3}
18 км 1/0
[Ac trans]
+15.2 +12.9 86 +15 +17 1020.3 1019.7 +9.4
07 17.06 Ю 3
{5}
18 км 1/0
[Ac trans]
+17.9 +13.9 77 +18 +22 1020.5 1019.9
08 17.06 Ю 4
{6}
25 км 1/0
[Ac trans]
+20.0 +13.8 67 +22 +28 комфорт 1020.4 1019.8
09 17.06 Ю 4
{7}
25 км 3/3 1050 м
[Cu hum]
+21.0 +12.6 59 +24 +29 комфорт 1020.2 1019.6
10 17.06 ЮЗ 5
{7}
25 км 5/4 1170 м
[Cu Sc Ci fib]
+20.5 +12.3 59 +22 +27 комфорт 1020.1 1019.5
11 17.06 ЮЗ 5
{8}
25 км 5/4 1260 м
[Cu Sc Ci fib]
+22.2 +12.8 55 +25 +30 комфорт 1019.7 1019.1
12 17.06 СЗ 4
{8}
15 км 5/4 1260 м
[Cu Sc Ci fib]
+18.5 +14.1 76 +19 +26 1019.7 1019.1
13 17.06 СЗ 4
{6}
18 км 5/4 1500 м
[Cu Sc Ci fib]
+18.4 +14.0 76 +19 +25 1019.6 1019.0
14 17.06 СЗ 4
{6}
20 км 4/4 1500 м
[Cu Sc Ci fib]
+18.7 +13.5 72 +19 +25 1019.4 1018.8
15 17.06 СЗ 4
{6}
20 км 1/1 1500 м
[Cu Sc Ci fib]
+18.6 +13.0 70 +19 +26 1019.1 1018.5
16 17.06 СЗ 4
{5}
20 км 3/1 1500 м
[Cu Sc Ci fib]
+18.1 +12.3 69 +18 +22 1018.8 1018.2
17 17.06 СЗ 3
{5}
20 км 3/1 1200 м
[Cu Sc Ci fib]
+17.9 +12.3 70 +18 +21 1018.6 1018.0
18 17.06 С 2
{6}
20 км 4/1 1200 м
[Cu hum Ci fib]
+17.7 +11.5 67 +18 +19 1018.2 1017.6 +22.9
19 17.06 С 2
{4}
20 км 6/1 1350 м
[Cu hum Ci sp]
+16.4 +11.7 74 +17 +17 1018.0 1017.4
20 17.06 СЗ 2
{4}
20 км 6/0
[Ci sp]
+15.6 +11.2 75 +16 +16 1017.9 1017.3
21 17.06 С 1
{4}
20 км 6/0
[Ci sp]
+15.1 +10.7 75 +16 +16 1017.8 1017.2
22 17.06 З 1
{2}
20 км 8/0
[Ci sp]
+14.1 +10.5 79 +14 +14 1017.8 1017.2
23 17.06 З 2
{3}
20 км 8/0
[Ci fib]
+12.6 +10.2 85 +12 +12 1018.1 1017.5
00 18.06 З 2
{4}
20 км 8/4 1500 м
[Sc Ci sp]
+13.1 +10.2 83 +12 +12 1017.9 1017.3
01 18.06 ЮЗ 1
{2}
20 км 6/4 1500 м
[Sc Ci sp]
+11.9 +10.0 88 +12 +12 1017.3 1016.7
02 18.06 ЮЗ 1
{1}
20 км 5/3 1500 м
[Sc Ci fib]
+11.1 +9.7 91 +11 +11 1017.0 1016.3
03 18.06 штиль 0
{2}
20 км 5/3 1500 м
[Sc Ci fib]
+11.5 +10.3 92 +11 +11 1016.7 1016.1
04 18.06 штиль 0
{1}
8000 м 5/3 1500 м
[Sc Ci fib]
+10.6 +9.3 92 +10 +10 1016.4 1015.8
05 18.06 СЗ 1
{1}
8000 м 8/3 1500 м
[Sc Ci sp]
+12.1 +10.9 92 +12 +13 1016.5 1015.9
06 18.06 СЗ 2
{3}
30 км 8/1 1500 м
[Sc Ac trans Ci sp]
+15.6 +12.0 79 +16 +17 1016.4 1015.8 +10.3
07 18.06 С 1
{2}
30 км 8/1 1500 м
[Sc Ac trans Ci sp]
+16.8 +11.5 71 +18 +21 1016.4 1015.8
08 18.06 С 1
{2}
30 км 8/1 1500 м
[Sc Ac trans Ci sp]
+18.2 +12.6 70 +20 +25 1016.0 1015.4
09 18.06 С 3
{4}
30 км 8/1 1500 м
[Sc Ac trans Ci sp]
+17.9 +13.2 74 +18 +24 1016.1 1015.5
10 18.06 С 3
{4}
30 км 6/0
[Ac trans Ci fib]
+19.2 +13.5 70 +21 +31 комфорт 1015.8 1015.2
11 18.06 С 3
{5}
30 км 6/0
[Ac trans Ci fib]
+20.9 +13.7 63 +24 +36 комфорт 1015.3 1014.7
12 18.06 С 4
{6}
30 км 8/0
[Ac trans Ci sp]
+22.1 +14.0 60 +25 +35 комфорт 1014.8 1014.2
13 18.06 С 5
{7}
30 км 6/1 1050 м
[Cu hum Ac trans Ci fib]
+22.0 +14.5 62 +25 +31 комфорт 1014.3 1013.7
14 18.06 СВ 6
{7}
30 км 6/1 1200 м
[Cu hum Ac trans Ci sp]
+21.0 +14.3 66 +24 +27 комфорт 1013.6 1013.0
15 18.06 СВ 6
{10}
30 км 8/1 1350 м
[Cu hum Ac trans Ci sp]
+20.1 +14.3 69 +22 +24 комфорт 1013.1 1012.5
16 18.06 СВ 7
{10}
30 км 8/1 1350 м
[Cu hum Ac trans Ci sp]
+19.3 +13.9 71 +20 +21 1012.5 1012.0
17 18.06 СВ 6
{9}
30 км 9/1 1500 м
[Cu Sc Ac trans Ci sp]
+19.5 +13.2 67 +21 +21 комфорт 1012.0 1011.5
18 18.06 СВ 5
{10}
25 км 9/1 1500 м
[Cu Sc Ac As Ci sp]
+18.8 +10.8 60 +19 +20 1012.1 1011.5 +23.1
19 18.06 СВ 6
{9}
20 км слаб. ливневой дождь 9/3 1350 м
[Cu med, cong Ac As Ci sp]
+17.8 +13.9 78 +17 +17 1011.3 1010.7
20 18.06 СВ 6
{9}
20 км в посл. час ливневой дождь 9/1 1500 м
[Cu hum Ac As Ci sp]
+17.7 +13.1 74 +17 +17 1011.0 1010.4
21 18.06 В 5
{9}
20 км 8/1 1500 м
[Cu hum Ac As Ci sp]
+16.7 +13.1 79 +16 +16 1010.7 1010.1
22 18.06 В 4
{6}
17 км 4/1 1500 м
[Cu hum Ac trans Ci fib]
+16.5 +13.5 82 +16 +16 1010.3 1009.7
23 18.06 В 4
{6}
15 км 6/3 1500 м
[Cu Sc Ac As Ci fib]
+15.9 +13.6 86 +15 +15 1009.4 1008.8
00 19.06 В 4
{9}
9000 м {ливн. осадки} 6/1 1500 м
[Cu med, cong Ac As Ci sp]
+16.4 +14.1 86 +16 +16 1008.7 1008.1 0.0
01 19.06 В 3
{4}
8000 м 6/3 1500 м
[Cu Sc Ac As Ci sp]
+16.5 +14.2 86 +16 +16 1008.3 1007.7
02 19.06 СЗ 8
{11}
8000 м слаб. ливневой дождь 8/4 480 м
[Cb calv Ac trans]
+17.3 +8.1 55 +16 +16 1010.0 1009.4
03 19.06 С 4
{11}
12 км в посл. час гроза {ливн. осадки} 8/3 600 м
[Cb calv Ac As Ci sp]
+15.9 +12.9 82 +15 +15 1008.2 1007.6
04 19.06 С 4
{8}
7000 м гроза, ливневой дождь 9/9 600 м
[Cb calv]
+16.1 +13.5 85 +15 +15 1007.5 1007.0
05 19.06 В 4
{8}
12 км гроза, ливневой дождь 9/8 600 м
[Cb calv Ac As Ci ing]
+15.3 +13.7 90 +14 +14 1006.8 1006.2
06 19.06 В 4
{11}
20 км в посл. час гроза {ливн. осадки} 9/3 900 м
[Cb cap Ac As]
+15.6 +13.7 88 +15 +15 1005.6 1005.0 +15.3 8
07 19.06 ЮВ 3
{7}
15 км в посл. час ливневой дождь 8/1 900 м
[Cb calv Ac As Ci sp]
+17.0 +14.6 86 +17 +19 1005.9 1005.3
08 19.06 З 10
{15}
20 км осадки на расстоянии 10/9 270 м
[Cb calv]
+17.2 +14.8 86 +16 +16 1008.5 1007.9
09 19.06 СЗ 1
{15}
15 км в посл. час гроза {ливн. осадки} 9/1 300 м
[Cb cap Ac trans Ci sp]
+16.7 +14.2 85 +18 +25 1007.9 1007.3
10 19.06 Ю 1
{6}
16 км 9/1 360 м
[Cu hum Ac trans Ci sp]
+17.7 +15.0 84 +19 +28 1007.9 1007.3
11 19.06 З 1
{3}
14 км 9/1 330 м
[Cu hum Ac trans Ci sp]
+18.3 +14.9 81 +20 +30 1008.1 1007.6
12 19.06 СЗ 2
{15}
18 км {гроза, ливн. осадки} 8/1 540 м
[Cu hum Ac As Ci fib]
+19.7 +15.3 76 +22 +32 комфорт 1007.8 1007.3 2
13 19.06 СЗ 5
{6}
25 км 9/9 630 м
[Sc]
+17.9 +14.7 82 +17 +18 1008.1 1007.6
14 19.06 СЗ 3
{6}
20 км 9/9 800 м
[Sc]
+18.0 +14.1 78 +18 +19 1008.0 1007.4
15 19.06 СЗ 4
{6}
20 км в посл. час ливневой дождь 9/4 840 м
[Cu med, cong Ac As]
+18.0 +14.3 79 +18 +20 1007.9 1007.3
16 19.06 З 4
{7}
20 км в посл. час ливневой дождь 9/8 720 м
[Cu Sc]
+18.1 +14.3 78 +18 +19 1007.8 1007.2
17 19.06 З 6
{8}
16 км 6/1 720 м
[Cu med, cong Ac As Ci sp]
+17.6 +14.0 79 +17 +18 1007.9 1007.3
18 19.06 СЗ 4
{8}
20 км {ливн. осадки} 9/3 750 м
[Cu Sc Ac trans Ci sp]
+16.6 +13.9 84 +16 +17 1008.3 1007.7 +20.6 2
19 19.06 СЗ 2
{6}
15 км 9/1 900 м
[Cu Sc Ac trans Ci sp]
+16.1 +13.8 86 +16 +16 1008.4 1007.8
20 19.06 З 3
{4}
15 км 9/8 500 м
[Cu Sc Ac trans Ci sp]
+15.9 +13.7 87 +15 +15 1009.2 1008.6
21 19.06 З 2
{6}
15 км 9/9 450 м
[Cu Sc]
+16.1 +13.9 87 +16 +16 1009.5 1008.9
22 19.06 ЮЗ 2
{5}
7000 м в посл. час ливневой дождь 9/9 270 м
[Cu Sc]
+16.0 +14.5 91 +16 +16 1009.5 1009.0
23 19.06 ЮЗ 3
{5}
8000 м 9/8 480 м
[Cu Sc Ac trans Ci fib]
+15.1 +13.3 89 +14 +14 1009.9 1009.3
00 20.06 З 5
{8}
8000 м {ливн. осадки} 9/9 420 м
[Cu Sc]
+15.5 +13.7 89 +14 +14 1010.0 1009.4 0.3
01 20.06 ЮЗ 5
{8}
8000 м 9/1 270 м
[St Ac trans Ci fib]
+14.4 +12.7 90 +13 +13 1010.4 1009.8
02 20.06 ЮЗ 5
{8}
8000 м 9/1 270 м
[St Ac trans Ci fib]
+14.3 +12.3 88 +13 +13 1010.2 1009.6
03 20.06 ЮЗ 4
{8}
7000 м 9/4 270 м
[St Ac trans Ci fib]
+14.0 +12.2 89 +12 +12 1010.3 1009.7
04 20.06 ЮЗ 5
{8}
7000 м 9/9 270 м
[Sc]
+14.2 +12.0 87 +12 +12 1010.5 1009.9
05 20.06 ЮЗ 5
{8}
7000 м 9/9 270 м
[Sc]
+14.3 +12.2 87 +13 +13 1010.7 1010.1
06 20.06 ЮЗ 5
{8}
6000 м 9/9 240 м
[St]
+14.6 +12.5 87 +13 +13 1011.0 1010.4 +13.7 0.3
07 20.06 ЮЗ 5
{8}
9000 м 9/9 270 м
[St]
+15.2 +12.8 86 +14 +14 1011.4 1010.8
08 20.06 ЮЗ 5
{8}
8000 м 9/9 360 м
[Cu Sc]
+15.6 +13.1 85 +14 +15 1011.9 1011.3
09 20.06 З 6
{9}
15 км 9/9 300 м
[Cu Sc]
+16.3 +13.4 83 +15 +16 1012.4 1011.8
10 20.06 З 6
{8}
13 км 6/6 500 м
[Cu Sc Ci fib]
+17.3 +13.5 78 +16 +19 1012.9 1012.3
11 20.06 З 8
{10}
13 км 6/5 600 м
[Cu Sc Ci fib]
+17.3 +13.3 77 +16 +18 1013.3 1012.7
12 20.06 З 9 13 км 6/3 600 м
[Cu Sc]
+17.8 +13.6 76 +17 +18 1013.9 1013.3

 

Местоположение метеостанции Остенде (Бельгия): широта 51.20 долгота 2.87 высота над уровнем моря 5 м.

В архиве по умолчанию представлена погода в Остенде за последнюю неделю. Архивные данные за месяц целиком и за предыдущие месяцы, начиная с января 2011 года, Вы можете получить, выбрав интересующий диапазон дат из раскрывающегося списка и нажав кнопку "Ввод!".


*Определитесь, кто Вы:
робот инопланетянин человек

Внимание! Время в таблицах - всемирное. Для получения местного времени необходимо прибавить поправку, которая равна 1 ч.

Смотрите также архив погоды в соседних городах и на ближайших метеорологических станциях:

Погода в Коксейде (Бельгия) (20 км)
Погода в Зебрюгге (Бельгия) (27 км)
Погода в Бейтеме (Бельгия) (38 км)
Погода в Цадзанде (Нидерланды) (41 км)
Погода в Дюнкерке (Франция) (41 км)
Погода на Отмели Vlakte Van Raan (Нидерланды) (43 км)
Погода в Флиссингене (Нидерланды) (58 км)
Погода в Хуфдплате (Нидерланды) (59 км)
Погода в Семмерзэйке (Бельгия) (63 км)
Погода в Генте (Бельгия) (66 км)

Пояснения к столбцам:

Ветер - указаны скорость ветра в м/с - средняя за 10 мин, порывы в срок и между сроками (в фигурных скобках) и направление, откуда дует ветер: С - северный, СВ - северо-восточный, В - восточный, ЮВ - юго-восточный, Ю - южный, ЮЗ - юго-западный, З - западный, СЗ - северо-западный.
Видимость - горизонтальная дальность видимости в метрах или километрах. При видимости от 1 до 10 км при отсутствии осадков обычно наблюдается дымка, при ухудшении видимости до 1 км и менее - туман. В сухую погоду видимость может ухудшаться дымом, пылью или мглою.
Явления - указаны атмосферные явления, наблюдавшиеся в срок или в последний час перед сроком; фигурными скобками обозначены явления, наблюдавшиеся между сроками (за 1-3 часа до срока); квадратными скобками обозначены град или гололедные отложения с указанием их диаметра в мм.
Облачность - указаны через наклонную черту общая и нижняя облачность в баллах и высота нижней границы облаков в метрах; квадратными скобками обозначены формы облаков: Ci - перистые, Cs - перисто-слоистые, Cc - перисто-кучевые, Ac - высококучевые, As - высокослоистые, Sc - слоисто-кучевые, Ns - слоисто-дождевые, Cu - кучевые, Cb - кучево-дождевые. Подробнее классификацию облаков см. в Атласе облаков (PDF).
T - Температура воздуха - температура, измеренная на высоте 2 м над землей.
Td - Температура точки росы - температура, при понижении до которой содержащийся в воздухе водяной пар достигнет насыщения.
f - Относительная влажность воздуха - влажноcть воздуха, измеренная на высоте 2 м над землей.
Te - Эффективная температура - температура, которую ощущает одетый по сезону человек в тени. Характеристика душности погоды. При расчете учитывается влияние влажности воздуха и скорости ветра на теплоощущения человека.
Tes - Эффективная температура на солнце - температура, которую ощущает человек, с поправкой на солнечный нагрев. Характеристика знойности погоды. Зависит от высоты солнца над горизонтом, облачности и скорости ветра. Ночью, в пасмурную погоду, а также при ветре 12 м/с и более поправка равна нулю.
P - Атмосферное давление - приведенное к уровню моря атмосферное давление.
Po - Атмосферное давление - измеренное на уровне метеостанции атмосферное давление.
Tmin - Минимальная температура - минимум температуры воздуха на высоте 2 м над землей.
Tmax - Максимальная температура - максимум температуры воздуха на высоте 2 м над землей.
R - Количество осадков - Количество выпавших осадков за период времени, мм. При наведении курсора мыши на число - период времени, за который выпало указанное количество осадков.
R24 - Количество осадков - Количество выпавших осадков за 24 часа, мм.
S - Снежный покров - Высота снежного покрова, см. При наведении курсора мыши на число - состояние снежного покрова и степень покрытия местности в баллах.